• MPC Preparation (Info)

  • MPEC 2001-G05 : 2001 FM129

    The following Minor Planet Electronic Circular may be linked-to from your own Web pages, but must not otherwise be redistributed electronically.

    A form allowing access to any MPEC is at the bottom of this page.


    Read MPEC 2001-G04 Read MPEC 2001-G06


    M.P.E.C. 2001-G05                                Issued 2001 Apr. 2, 23:50 UT
    
         The Minor Planet Electronic Circulars contain information on unusual
             minor planets and routine data on comets.  They are published
       on behalf of Commission 20 of the International Astronomical Union by the
              Minor Planet Center, Smithsonian Astrophysical Observatory,
                              Cambridge, MA 02138, U.S.A.
    
                 Prepared using the Tamkin Foundation Computer Network
    
                                  MPC@CFA.HARVARD.EDU
              URL http://cfa-www.harvard.edu/iau/mpc.html  ISSN 1523-6714
    
                                      2001 FM129
    
    Observations:
         K01FC9M* C2001 03 31.13039 08 31 26.05 +12 00 59.5          16.8        704
         K01FC9M  C2001 03 31.14565 08 31 32.45 +12 00 48.1          17.6        704
         K01FC9M  C2001 03 31.16000 08 31 38.48 +12 00 37.6          17.6        704
         K01FC9M  C2001 03 31.17424 08 31 44.44 +12 00 26.7          17.4        704
         K01FC9M  C2001 03 31.18921 08 31 50.71 +12 00 15.4          17.1        704
         K01FC9M  C2001 04 01.12772 08 38 20.52 +11 48 45.8          17.0        704
         K01FC9M  C2001 04 01.14290 08 38 26.45 +11 48 34.9          17.3        704
         K01FC9M  C2001 04 01.15724 08 38 32.03 +11 48 24.0          17.2        704
         K01FC9M  C2001 04 01.17285 08 38 38.03 +11 48 12.7          16.9        704
         K01FC9M  C2001 04 01.18744 08 38 43.68 +11 48 01.6          17.3        704
         K01FC9M  C2001 04 02.84598 08 49 04.26 +11 28 09.0                      557
         K01FC9M  C2001 04 02.84709 08 49 04.65 +11 28 08.7                      557
         K01FC9M  C2001 04 02.84822 08 49 05.06 +11 28 07.2                      557
         K01FC9M  C2001 04 02.84934 08 49 05.48 +11 28 06.8                      557
         K01FC9M  C2001 04 02.85046 08 49 05.68 +11 28 05.9                      557
         K01FC9M  C2001 04 02.85159 08 49 06.10 +11 28 05.1                      557
         K01FC9M  C2001 04 02.85271 08 49 06.57 +11 28 03.9                      557
         K01FC9M  C2001 04 02.86654 08 49 11.33 +11 27 54.8          16.7 R      046
         K01FC9M  C2001 04 02.86728 08 49 11.55 +11 27 54.7                      046
         K01FC9M  C2001 04 02.86788 08 49 11.76 +11 27 54.2                      046
         K01FC9M  C2001 04 02.86855 08 49 12.01 +11 27 53.9                      046
         K01FC9M  C2001 04 02.86925 08 49 12.20 +11 27 52.9                      046
         K01FC9M  C2001 04 02.89967 08 49 22.86 +11 27 34.9          16.7 R      165
         K01FC9M  C2001 04 02.90245 08 49 23.79 +11 27 31.2                      165
         K01FC9M  C2001 04 02.90618 08 49 25.20 +11 27 27.5                      165
    
    Observer details:
    046 Klet.  Observer M. Tichy.  0.57-m f/5.2 reflector + CCD.
    165 Piera Observatory, Barcelona.  Observer J. Guarro.  0.40-m f/2 Schmidt
        + CCD.
    557 Ondrejov.  Observer P. Kusnirak.  0.65-m f/3.6 reflector + CCD.
    704 Lincoln Laboratory ETS, New Mexico.  Observers M. Blythe, F. Shelly,
        M. Bezpalko, R. Huber, L. Manguso, S. Adams.  Measurers J. Stuart,
        R. Sayer, J. B. Evans, H. Viggh.  1.0-m f/2.15 reflector + CCD.
    
    Orbital elements:
    2001 FM129                                                           PHA 0.013
    Epoch 2001 Apr. 1.0 TT = JDT 2452000.5                  Spahr
    M  46.22532              (2000.0)            P               Q
    n   0.70560306     Peri.  143.05056     +0.60429152     -0.79627878
    a   1.2495752      Node   269.75488     +0.72421236     +0.56347017
    e   0.6558874      Incl.    1.59204     +0.33218701     +0.22009426
    P   1.40           H   17.5           G   0.15
    From 25 observations 2001 Mar. 31-Apr. 2.
    
    Ephemeris:
    2001 FM129               a,e,i = 1.25, 0.66, 2                   q = 0.4300
    Date    TT    R. A. (2000) Decl.     Delta      r     Elong.  Phase     V
    2001 03 22    06 50.83   +13 37.6    0.179    1.045   100.9    69.4    16.3
    2001 04 01    08 37.48   +11 50.5    0.285    1.158   117.2    50.2    17.0
    2001 04 11    09 26.30   +10 02.5    0.419    1.262   119.5    43.8    17.8
    2001 04 21    09 55.65   +08 35.7    0.564    1.358   117.1    41.2    18.5
    2001 05 01    10 17.40   +07 17.3    0.717    1.446   112.9    39.9    19.2
    2001 05 11    10 35.70   +06 00.7    0.877    1.527   107.9    39.0    19.7
    2001 05 21    10 52.28   +04 43.1    1.040    1.602   102.6    38.1    20.1
    2001 05 31    11 08.00   +03 23.2    1.207    1.670    97.1    37.1    20.5
    2001 06 10    11 23.28   +02 00.7    1.375    1.731    91.6    35.9    20.8
    2001 06 20    11 38.33   +00 35.8    1.542    1.787    86.1    34.6    21.1
    2001 06 30    11 53.32   -00 51.5    1.707    1.838    80.5    33.1    21.4
    2001 07 10    12 08.32   -02 20.5    1.869    1.883    75.0    31.4    21.6
    2001 07 20    12 23.41   -03 50.9    2.026    1.923    69.6    29.7    21.7
    2001 07 30    12 38.63   -05 22.2    2.175    1.958    64.1    27.8    21.9
    
    Timothy B. Spahr             (C) Copyright 2001 MPC           M.P.E.C. 2001-G05
    

    Read MPEC 2001-G04 Read MPEC 2001-G06


    MPEC number:

    Enter an MPEC number in one of the following forms:

    • 1997-B01 (the full form)
    • J97B01 (the packed version of the full form)
    • B01 (the abbreviated form)